{"data":{"norad_id":58023,"epoch":"2026-09-21T17:52:12.989856Z","epoch_age_seconds":126265,"freshness":"FRESH","line1":"1 58023U 23155H   26264.74459479  .00003651  00000+0  15004-3 0  9990","line2":"2 58023  97.5638 347.2701 0002931  72.2140 287.9417 15.24838154163068","mean_motion":15.24838154,"eccentricity":0.0002931,"inclination_deg":97.5638,"raan_deg":347.2701,"arg_perigee_deg":72.214,"mean_anomaly_deg":287.9417,"bstar":0.00015004,"rev_number":16306,"period_min":94.436251888277,"perigee_km":489.25804552439,"apogee_km":493.28489276901,"semimajor_km":6869.4084691467,"source":"CELESTRAK","updated_at":"2026-09-22T09:00:26.442013Z"}}